Location: Decatur Area Astronomy Club
(40.0275°N, 88.7810°W)
Time: 19:50:06
(UTC-05:00)

Amateur Radio Satellites - All Passes

Search period start: 26 July 2017 19:20
Search period end: 27 July 2017 19:20
Location: Decatur Area Astronomy Club, 40.0275°N, 88.7810°W

Satellite Date Start Highest point End Downlink Frequencies (MHz)
Time Altitude Azimuth
HO-68 26 Jul 19:26:26 19:33:38 88° 256° (WSW) 19:40:51 435.675
NUDT-PHONESAT 26 Jul 19:28:06 19:30:24 16° 267° (W) 19:32:43 437.300
XW-2C 26 Jul 19:28:19 19:29:53 12° 268° (W) 19:31:29 145.795 - 145.815
NO-84 26 Jul 19:31:47 19:33:59 14° 236° (SW) 19:36:15 435.350 FM
AAUSAT CUBESAT 2 26 Jul 19:37:03 19:40:39 31° 71° (ENE) 19:44:18 437.432
UWE-3 26 Jul 19:41:19 19:45:32 38° 72° (ENE) 19:49:40 435.000/436.395/437.385
BEESAT 3 26 Jul 19:50:19 19:50:57 10° 39° (NE) 19:51:34 437.485
ZACube-1 26 Jul 19:51:33 19:55:16 27° 70° (ENE) 19:58:56 437.345
Tancredo 1 26 Jul 19:52:17 19:55:12 82° 323° (NW) 19:58:08 437.200
ISS 26 Jul 19:55:07 19:58:04 32° 136° (SE) 20:01:01 437.550
AO-85 26 Jul 20:05:13 20:07:48 16° 45° (NE) 20:10:28 145.980
YUBILEINY 26 Jul 20:06:55 20:15:14 45° 286° (WNW) 20:23:36 435.215
CUTE-I 26 Jul 20:07:01 20:08:42 11° 271° (W) 20:10:24 437.470
Oscar 11 26 Jul 20:14:18 20:18:06 31° 70° (ENE) 20:21:53 .
XW-2A 26 Jul 20:16:44 20:19:44 29° 263° (W) 20:22:45 145.665 - 145.685
CUBEBUG 2 26 Jul 20:23:11 20:27:40 44° 261° (W) 20:32:05 437.445
CUTE 1.7 + AOD 2 26 Jul 20:26:27 20:29:30 20° 266° (W) 20:32:35 437.475
AO-73 26 Jul 20:29:54 20:34:15 64° 76° (ENE) 20:38:32 145.935
BEESAT 2 26 Jul 20:34:05 20:34:56 10° 39° (NE) 20:35:45 435.950
SEEDS 26 Jul 20:34:41 20:38:06 24° 265° (W) 20:41:31 437.485
nSIGHT-1 26 Jul 20:35:16 20:38:30 88° 334° (NNW) 20:41:44 .
STRAND 1 26 Jul 20:39:42 20:44:49 76° 285° (WNW) 20:49:54 437.568
AAUSAT CUBESAT 2 26 Jul 21:13:07 21:16:08 20° 266° (W) 21:19:11 437.432
HO-68 26 Jul 21:18:37 21:22:14 14° 271° (W) 21:25:52 435.675
UWE-3 26 Jul 21:18:47 21:22:04 19° 266° (W) 21:25:19 435.000/436.395/437.385
BEESAT 3 26 Jul 21:25:11 21:29:12 81° 58° (ENE) 21:33:08 437.485
ZACube-1 26 Jul 21:27:44 21:31:28 26° 264° (W) 21:35:08 437.345
RS-15 26 Jul 21:28:49 21:37:44 22° 11° (N) 21:46:26 29.354- 29.394
Tancredo 1 26 Jul 21:29:11 21:30:59 15° 341° (NNW) 21:32:46 437.200
ISS 26 Jul 21:31:38 21:34:33 29° 332° (NNW) 21:37:27 437.550
AO-85 26 Jul 21:44:19 21:48:32 64° 241° (WSW) 21:53:03 145.980
TIGRISAT 26 Jul 21:48:41 21:50:27 12° 91° (E) 21:52:13 435.000
Oscar 11 26 Jul 21:50:57 21:54:14 21° 266° (W) 21:57:33 .
FO-29 26 Jul 21:52:18 21:58:44 39° 95° (E) 22:04:26 435.910
EO-88 26 Jul 21:56:23 21:59:59 70° 76° (ENE) 22:03:37 145.990 - 145.960
DELFI C3 26 Jul 21:57:05 22:01:00 69° 260° (W) 22:04:57 145.870
PRISM 26 Jul 22:02:57 22:05:31 16° 93° (E) 22:08:03 437.425
BEESAT 2 26 Jul 22:09:16 22:13:21 81° 58° (ENE) 22:17:22 435.950
AO-73 26 Jul 22:09:46 22:10:50 11° 270° (W) 22:11:55 145.935
nSIGHT-1 26 Jul 22:13:02 22:15:17 17° 340° (NNW) 22:17:32 .
UNISAT 6 26 Jul 22:39:34 22:43:46 52° 100° (E) 22:47:55 437.425
M-CUBED/EXP-1 PRIME 26 Jul 22:47:34 22:50:59 20° 98° (E) 22:54:23 437.505
ISS 26 Jul 23:10:32 23:11:50 12° 352° (N) 23:13:07 437.550
ESTCUBE 1 26 Jul 23:13:22 23:17:40 48° 72° (ENE) 23:21:59 437.505/2401.250
TIGRISAT 26 Jul 23:23:17 23:27:29 53° 287° (WNW) 23:31:36 435.000
LO-87 26 Jul 23:27:36 23:31:12 64° 259° (W) 23:34:50 145.935 - 145.965
PRISM 26 Jul 23:37:00 23:40:56 40° 288° (WNW) 23:44:50 437.425
FO-29 26 Jul 23:37:22 23:43:40 36° 295° (WNW) 23:49:20 435.910
RS-15 26 Jul 23:42:58 23:54:34 46° 44° (NE) 00:05:33 29.354- 29.394
VELOX 1 26 Jul 23:50:57 23:54:40 27° 68° (ENE) 23:58:24 145.980
nSIGHT-1 26 Jul 23:51:55 23:52:43 11° 1° (N) 23:53:32 .
AIST 2D 26 Jul 23:57:44 00:01:07 46° 99° (E) 00:04:30 435.315
DUCHIFAT 1 27 Jul 00:10:13 00:13:26 21° 95° (E) 00:16:38 145.980
50 SAT 27 Jul 00:13:40 00:15:41 15° 67° (ENE) 00:17:41 437.505
POLYITAN 1 27 Jul 00:15:22 00:19:07 31° 97° (E) 00:22:50 437.675
UNISAT 6 27 Jul 00:17:50 00:20:00 14° 296° (WNW) 00:22:10 437.425
M-CUBED/EXP-1 PRIME 27 Jul 00:21:06 00:25:29 43° 293° (WNW) 00:29:53 437.505
SPROUT 27 Jul 00:25:51 00:30:08 76° 77° (ENE) 00:34:27 437.525
QB50P2 27 Jul 00:28:18 00:32:23 48° 99° (E) 00:36:27 145.880/145.840
UKube-1 27 Jul 00:29:54 00:32:18 15° 64° (ENE) 00:34:41 .
NANOSAT C BR1 27 Jul 00:38:16 00:42:22 51° 100° (E) 00:46:26 145.865
O/OREOS (USA 219) 27 Jul 00:38:31 00:42:48 42° 64° (ENE) 00:47:05 437.305
EO-79 27 Jul 00:39:33 00:43:43 60° 100° (E) 00:47:51 145.935-145.965
Tancredo 1 27 Jul 00:41:45 00:43:44 16° 21° (NNE) 00:45:44 437.200
ISS 27 Jul 00:47:45 00:49:25 13° 13° (NNE) 00:51:05 437.550
ESTCUBE 1 27 Jul 00:52:07 00:54:43 15° 268° (W) 00:57:19 437.505/2401.250
Oscar 19 27 Jul 01:04:32 01:05:54 11° 89° (E) 01:07:17 437.125/150
DX 1 27 Jul 01:25:10 01:29:31 89° 86° (E) 01:33:56 434.975-435.025
VELOX 1 27 Jul 01:27:16 01:31:01 27° 264° (W) 01:34:48 145.980
nSIGHT-1 27 Jul 01:27:44 01:30:07 19° 21° (NNE) 01:32:30 .
Gurwin Techsat 1B 27 Jul 01:45:03 01:48:45 19° 92° (E) 01:52:27 435.225
50 SAT 27 Jul 01:45:11 01:48:08 28° 263° (W) 01:51:08 437.505
DUCHIFAT 1 27 Jul 01:45:28 01:49:05 29° 290° (WNW) 01:52:43 145.980
POLYITAN 1 27 Jul 01:51:32 01:54:42 21° 293° (WNW) 01:57:51 437.675
RS-15 27 Jul 01:55:48 02:07:26 59° 248° (WSW) 02:18:27 29.354- 29.394
UKube-1 27 Jul 02:03:41 02:07:52 51° 260° (W) 02:12:06 .
BUGSAT 1 27 Jul 02:05:29 02:09:32 61° 285° (WNW) 02:13:30 437.445
QB50P2 27 Jul 02:05:30 02:07:45 14° 296° (WNW) 02:10:00 145.880/145.840
NANOSAT C BR1 27 Jul 02:15:33 02:17:37 13° 296° (WNW) 02:19:40 145.865
Tancredo 1 27 Jul 02:16:29 02:19:26 78° 219° (SW) 02:22:23 437.200
EO-79 27 Jul 02:17:23 02:18:56 12° 297° (WNW) 02:20:30 145.935-145.965
O/OREOS (USA 219) 27 Jul 02:18:53 02:21:50 17° 260° (W) 02:24:48 437.305
ISS 27 Jul 02:23:26 02:26:34 42° 32° (NNE) 02:29:41 437.550
Oscar 19 27 Jul 02:40:37 02:45:48 82° 285° (WNW) 02:50:59 437.125/150
BEESAT 27 Jul 02:48:37 02:53:10 46° 72° (ENE) 02:57:44 436.000
ITUPSAT 1 27 Jul 03:03:07 03:07:51 65° 74° (ENE) 03:12:36 437.325
nSIGHT-1 27 Jul 03:03:36 03:06:50 77° 219° (SW) 03:10:03 .
Gurwin Techsat 1B 27 Jul 03:23:49 03:28:59 52° 289° (WNW) 03:34:07 435.225
MOZHAYETS 4 27 Jul 03:30:30 03:35:04 89° 238° (WSW) 03:39:40
KKS-1 27 Jul 03:57:24 04:00:31 19° 65° (ENE) 04:03:40 437.445
ISS 27 Jul 04:00:21 04:02:51 20° 228° (SW) 04:05:21 437.550
CUBESAT XI-V 27 Jul 04:11:03 04:15:25 46° 72° (ENE) 04:19:49 437.345
PCSat 27 Jul 04:14:24 04:19:17 36° 110° (ESE) 04:24:12 145.827
AO-7 27 Jul 04:21:10 04:29:28 62° 104° (ESE) 04:37:40 .
STARS 27 Jul 04:21:48 04:24:11 14° 63° (ENE) 04:26:34 437.465
YUBILEINY 27 Jul 04:22:19 04:27:58 18° 62° (ENE) 04:33:33 435.215
Oscar 19 27 Jul 04:23:23 04:24:16 10° 302° (WNW) 04:25:09 437.125/150
BEESAT 27 Jul 04:27:58 04:31:09 18° 267° (W) 04:34:21 436.000
ITAMSAT 1 27 Jul 04:36:50 04:42:04 90° 11° (N) 04:47:15 435.822/435.867
ITUPSAT 1 27 Jul 04:44:00 04:46:04 13° 269° (W) 04:48:10 437.325
SO-50 27 Jul 04:48:31 04:50:20 12° 108° (ESE) 04:52:10 436.795
KKS-1 27 Jul 05:32:32 05:36:46 41° 261° (W) 05:41:01 437.445
CUBESAT XI-V 27 Jul 05:50:06 05:53:01 17° 268° (W) 05:55:56 437.345
LilacSat-2 27 Jul 05:53:34 05:54:06 10° 91° (E) 05:54:39 437.200
STARS 27 Jul 05:55:42 06:00:02 55° 259° (W) 06:04:24 437.465
DOVE 4 27 Jul 05:56:55 06:01:52 41° 97° (E) 06:06:34 437.250
PCSat 27 Jul 05:57:48 06:02:40 33° 308° (NW) 06:07:34 145.827
XW-2F 27 Jul 06:02:37 06:04:08 12° 92° (E) 06:05:39 145.980 - 146.000
AO-7 27 Jul 06:14:41 06:21:41 31° 303° (WNW) 06:28:40 .
YUBILEINY 27 Jul 06:17:14 06:26:03 89° 83° (E) 06:34:46 435.215
STRAND 1 27 Jul 06:17:52 06:21:14 18° 63° (ENE) 06:24:36 437.568
ITAMSAT 1 27 Jul 06:18:57 06:20:44 12° 302° (WNW) 06:22:31 435.822/435.867
SO-50 27 Jul 06:25:42 06:30:12 68° 303° (WNW) 06:34:44 436.795
XW-2D 27 Jul 06:31:28 06:34:50 30° 97° (E) 06:38:11 145.860 - 145.880
CUTE-I 27 Jul 06:40:42 06:45:34 35° 97° (E) 06:50:24 437.470
XW-2B 27 Jul 06:41:27 06:45:00 39° 98° (E) 06:48:33 145.730 - 145.750
HO-68 27 Jul 06:56:33 07:01:10 18° 91° (E) 07:05:44 435.675
NUDT-PHONESAT 27 Jul 06:57:18 07:00:52 45° 99° (E) 07:04:25 437.300
XW-2C 27 Jul 06:58:46 07:02:32 68° 100° (E) 07:06:18 145.795 - 145.815
KAITUO 1B 27 Jul 07:15:03 07:18:47 84° 102° (ESE) 07:22:31 145.475/437.950
LilacSat-2 27 Jul 07:24:58 07:28:39 50° 286° (WNW) 07:32:20 437.200
XW-2F 27 Jul 07:34:54 07:38:27 41° 287° (WNW) 07:42:01 145.980 - 146.000
DOVE 4 27 Jul 07:35:04 07:39:14 24° 294° (WNW) 07:43:15 437.250
XW-2A 27 Jul 07:39:40 07:41:36 15° 94° (E) 07:43:32 145.665 - 145.685
STRAND 1 27 Jul 07:54:52 07:59:55 57° 259° (W) 08:05:01 437.568
FO-29 27 Jul 08:03:29 08:08:55 21° 58° (ENE) 08:14:24 435.910
XW-2D 27 Jul 08:06:16 08:08:46 17° 292° (WNW) 08:11:17 145.860 - 145.880
CUTE 1.7 + AOD 2 27 Jul 08:10:18 08:14:33 72° 101° (E) 08:18:48 437.475
SO-50 27 Jul 08:10:20 08:11:31 11° 323° (NW) 08:12:41 436.795
CUBEBUG 2 27 Jul 08:14:43 08:18:41 38° 98° (E) 08:22:33 437.445
YUBILEINY 27 Jul 08:16:25 08:21:32 17° 283° (WNW) 08:26:39 435.215
XW-2B 27 Jul 08:16:52 08:18:51 14° 293° (WNW) 08:20:49 145.730 - 145.750
SEEDS 27 Jul 08:17:57 08:22:06 54° 99° (E) 08:26:15 437.485
AO-73 27 Jul 08:20:33 08:22:00 12° 91° (E) 08:23:25 145.935
CUTE-I 27 Jul 08:20:54 08:25:28 29° 293° (WNW) 08:30:01 437.470
NUDT-PHONESAT 27 Jul 08:33:04 08:34:20 11° 295° (WNW) 08:35:36 437.300
HO-68 27 Jul 08:42:24 08:49:34 79° 288° (WNW) 08:56:42 435.675
TIGRISAT 27 Jul 08:47:06 08:48:56 12° 63° (ENE) 08:50:47 435.000
PRISM 27 Jul 08:53:11 08:54:16 11° 62° (ENE) 08:55:23 437.425
AAUSAT CUBESAT 2 27 Jul 08:54:16 08:58:26 64° 101° (ESE) 09:02:34 437.432
UWE-3 27 Jul 09:07:29 09:11:41 89° 278° (W) 09:15:49 435.000/436.395/437.385
XW-2A 27 Jul 09:11:33 09:14:22 26° 289° (WNW) 09:17:11 145.665 - 145.685
ZACube-1 27 Jul 09:15:43 09:19:50 60° 100° (E) 09:23:54 437.345
M-CUBED/EXP-1 PRIME 27 Jul 09:33:13 09:35:50 18° 60° (ENE) 09:38:35 437.505
DELFI C3 27 Jul 09:35:45 09:38:09 15° 92° (E) 09:40:33 145.870
UNISAT 6 27 Jul 09:37:10 09:41:33 43° 72° (ENE) 09:45:52 437.425
Oscar 11 27 Jul 09:37:21 09:41:40 72° 101° (E) 09:45:59 .
FO-29 27 Jul 09:45:14 09:52:55 87° 257° (WSW) 10:00:52 435.910
CUTE 1.7 + AOD 2 27 Jul 09:49:12 09:49:46 10° 297° (WNW) 09:50:19 437.475
CUBEBUG 2 27 Jul 09:52:13 09:54:58 17° 294° (WNW) 09:57:42 437.445
AO-73 27 Jul 09:54:31 09:58:33 52° 286° (WNW) 10:02:33 145.935
SEEDS 27 Jul 09:55:19 09:57:19 13° 295° (WNW) 09:59:19 437.485
TIGRISAT 27 Jul 10:20:25 10:25:03 70° 258° (WSW) 10:29:36 435.000
PRISM 27 Jul 10:24:55 10:28:59 64° 259° (W) 10:33:06 437.425
AAUSAT CUBESAT 2 27 Jul 10:32:05 10:33:19 11° 297° (WNW) 10:34:32 437.432
HO-68 27 Jul 10:32:21 10:36:10 15° 307° (NW) 10:39:58 435.675
AIST 2D 27 Jul 10:32:23 10:34:32 16° 68° (ENE) 10:36:41 435.315
NO-84 27 Jul 10:46:46 10:49:43 67° 319° (NW) 10:52:54 435.350 FM
ZACube-1 27 Jul 10:54:16 10:55:35 11° 296° (WNW) 10:56:53 437.345
EO-88 27 Jul 10:59:05 11:02:44 79° 286° (WNW) 11:06:22 145.990 - 145.960
DUCHIFAT 1 27 Jul 11:01:58 11:04:30 16° 65° (ENE) 11:07:03 145.980
M-CUBED/EXP-1 PRIME 27 Jul 11:06:39 11:09:58 32° 259° (WSW) 11:13:34 437.505
POLYITAN 1 27 Jul 11:07:26 11:10:46 23° 68° (ENE) 11:14:05 437.675
ESTCUBE 1 27 Jul 11:09:06 11:10:01 11° 90° (E) 11:10:56 437.505/2401.250
DELFI C3 27 Jul 11:09:19 11:13:03 38° 288° (WNW) 11:16:46 145.870
UNISAT 6 27 Jul 11:15:18 11:18:25 18° 267° (W) 11:21:30 437.425
BEESAT 3 27 Jul 11:15:31 11:17:52 15° 110° (ESE) 11:20:13 437.485
Oscar 11 27 Jul 11:16:14 11:17:11 11° 298° (WNW) 11:18:07 .
QB50P2 27 Jul 11:20:03 11:23:53 33° 71° (ENE) 11:27:44 145.880/145.840
NANOSAT C BR1 27 Jul 11:29:28 11:33:18 35° 71° (ENE) 11:37:10 145.865
EO-79 27 Jul 11:30:58 11:34:58 40° 72° (ENE) 11:38:57 145.935-145.965
FO-29 27 Jul 11:34:14 11:38:51 17° 273° (W) 11:43:33 435.910
AO-85 27 Jul 11:58:26 12:02:16 44° 117° (ESE) 12:06:01 145.980
BEESAT 2 27 Jul 12:01:09 12:03:34 16° 110° (ESE) 12:06:00 435.950
AIST 2D 27 Jul 12:04:30 12:07:30 27° 263° (W) 12:10:32 435.315
SPROUT 27 Jul 12:13:50 12:15:51 13° 91° (E) 12:17:52 437.525
Oscar 19 27 Jul 12:19:54 12:23:06 17° 62° (ENE) 12:26:19 437.125/150
NO-84 27 Jul 12:26:26 12:27:46 12° 339° (NNW) 12:29:09 435.350 FM
LO-87 27 Jul 12:28:29 12:31:57 45° 286° (WNW) 12:35:21 145.935 - 145.965
DUCHIFAT 1 27 Jul 12:35:44 12:39:47 44° 261° (W) 12:43:52 145.980
POLYITAN 1 27 Jul 12:42:37 12:46:23 30° 263° (W) 12:50:08 437.675
ESTCUBE 1 27 Jul 12:42:44 12:47:15 70° 285° (WNW) 12:51:45 437.505/2401.250
BEESAT 3 27 Jul 12:51:13 12:55:02 45° 306° (NW) 12:58:57 437.485
BUGSAT 1 27 Jul 12:53:42 12:57:56 80° 76° (ENE) 13:02:11 437.445
QB50P2 27 Jul 12:56:35 12:59:43 20° 266° (W) 13:02:52 145.880/145.840
PCSat 27 Jul 13:02:42 13:07:19 27° 50° (NE) 13:11:53 145.827
Gurwin Techsat 1B 27 Jul 13:05:14 13:09:45 29° 67° (ENE) 13:14:17 435.225
NANOSAT C BR1 27 Jul 13:06:04 13:09:05 19° 266° (W) 13:12:07 145.865
50 SAT 27 Jul 13:08:09 13:10:16 15° 94° (E) 13:12:23 437.505
EO-79 27 Jul 13:08:10 13:10:53 16° 267° (W) 13:13:35 145.935-145.965
DX 1 27 Jul 13:15:09 13:17:51 16° 93° (E) 13:20:32 434.975-435.025
VELOX 1 27 Jul 13:16:56 13:21:20 58° 101° (E) 13:25:42 145.980
SO-50 27 Jul 13:18:40 13:20:49 13° 39° (NE) 13:23:00 436.795
AO-7 27 Jul 13:30:45 13:35:54 18° 50° (NE) 13:41:02 .
BEESAT 2 27 Jul 13:37:07 13:40:56 43° 306° (NW) 13:44:49 435.950
AO-85 27 Jul 13:40:11 13:42:51 17° 314° (NW) 13:45:30 145.980
SPROUT 27 Jul 13:47:54 13:52:02 50° 287° (WNW) 13:56:08 437.525
UKube-1 27 Jul 13:51:30 13:55:09 26° 96° (E) 13:58:46 .
Oscar 19 27 Jul 13:56:52 14:01:54 60° 259° (W) 14:06:59 437.125/150
RS-15 27 Jul 14:07:22 14:16:40 27° 101° (E) 14:26:04 29.354- 29.394
ITAMSAT 1 27 Jul 14:17:08 14:20:23 17° 62° (ENE) 14:23:37 435.822/435.867
50 SAT 27 Jul 14:40:05 14:43:00 26° 289° (WNW) 14:45:55 437.505
Gurwin Techsat 1B 27 Jul 14:44:44 14:49:33 35° 263° (W) 14:54:24 435.225
PCSat 27 Jul 14:45:44 14:50:53 45° 248° (WSW) 14:56:00 145.827
O/OREOS (USA 219) 27 Jul 14:49:56 14:54:19 56° 108° (ESE) 14:58:42 437.305
DX 1 27 Jul 14:50:04 14:54:14 44° 288° (WNW) 14:58:23 434.975-435.025
BEESAT 27 Jul 14:51:22 14:53:10 12° 90° (E) 14:54:57 436.000
VELOX 1 27 Jul 14:55:00 14:57:16 14° 297° (WNW) 14:59:32 145.980
SO-50 27 Jul 14:57:23 15:01:58 86° 61° (ENE) 15:06:33 436.795
ITUPSAT 1 27 Jul 15:05:20 15:08:25 17° 93° (E) 15:11:29 437.325
AO-7 27 Jul 15:19:01 15:27:20 78° 70° (ENE) 15:35:44 .
MOZHAYETS 4 27 Jul 15:26:44 15:30:16 22° 94° (E) 15:33:47
UKube-1 27 Jul 15:27:27 15:31:05 26° 292° (WNW) 15:34:41 .
NO-84 27 Jul 15:43:44 15:45:34 13° 23° (NNE) 15:47:30 435.350 FM
ITAMSAT 1 27 Jul 15:54:07 15:59:18 63° 258° (WSW) 16:04:31 435.822/435.867
CUBESAT XI-V 27 Jul 16:10:01 16:11:51 12° 90° (E) 16:13:41 437.345
RS-15 27 Jul 16:15:29 16:27:43 84° 302° (WNW) 16:40:11 29.354- 29.394
BEESAT 27 Jul 16:26:39 16:31:23 67° 286° (WNW) 16:36:05 436.000
O/OREOS (USA 219) 27 Jul 16:31:28 16:34:04 15° 305° (NW) 16:36:41 437.305
ITUPSAT 1 27 Jul 16:41:55 16:46:29 48° 288° (WNW) 16:51:02 437.325
DOVE 4 27 Jul 17:01:03 17:05:35 37° 70° (ENE) 17:10:20 437.250
MOZHAYETS 4 27 Jul 17:03:21 17:07:28 34° 290° (WNW) 17:11:36
XW-2D 27 Jul 17:13:13 17:15:17 14° 67° (ENE) 17:17:20 145.860 - 145.880
AO-7 27 Jul 17:14:48 17:20:51 22° 267° (W) 17:26:57 .
NO-84 27 Jul 17:19:56 17:23:40 57° 40° (NE) 17:27:42 435.350 FM
XW-2B 27 Jul 17:22:48 17:25:22 18° 68° (ENE) 17:27:55 145.730 - 145.750
YUBILEINY 27 Jul 17:23:42 17:29:43 21° 79° (E) 17:35:44 435.215
KKS-1 27 Jul 17:23:52 17:28:02 37° 98° (E) 17:32:09 437.445
HO-68 27 Jul 17:26:48 17:30:14 14° 52° (NE) 17:33:40 435.675
NUDT-PHONESAT 27 Jul 17:36:29 17:39:08 19° 69° (ENE) 17:41:46 437.300
XW-2C 27 Jul 17:39:31 17:42:45 28° 71° (ENE) 17:46:00 145.795 - 145.815
CUBESAT XI-V 27 Jul 17:44:59 17:49:37 65° 286° (WNW) 17:54:16 437.345
STARS 27 Jul 17:45:55 17:49:39 26° 96° (E) 17:53:21 437.465
KAITUO 1B 27 Jul 17:54:22 17:57:40 32° 72° (ENE) 18:00:59 145.475/437.950
CUTE-I 27 Jul 18:01:38 18:06:51 54° 71° (ENE) 18:12:05 437.470
LilacSat-2 27 Jul 18:05:40 18:09:24 67° 76° (ENE) 18:13:08 437.200
XW-2F 27 Jul 18:14:28 18:18:11 77° 76° (ENE) 18:21:55 145.980 - 146.000
RS-15 27 Jul 18:31:46 18:42:20 32° 329° (NNW) 18:52:55 29.354- 29.394
DOVE 4 27 Jul 18:39:18 18:43:19 25° 267° (W) 18:47:32 437.250
Tancredo 1 27 Jul 18:44:38 18:47:14 29° 136° (SE) 18:49:51 437.200
XW-2D 27 Jul 18:45:39 18:49:08 36° 262° (W) 18:52:38 145.860 - 145.880
XW-2B 27 Jul 18:56:03 18:59:20 29° 263° (W) 19:02:38 145.730 - 145.750
NO-84 27 Jul 18:58:10 19:00:55 18° 234° (SW) 19:03:47 435.350 FM
KKS-1 27 Jul 19:01:03 19:04:19 20° 294° (WNW) 19:07:33 437.445
CUTE 1.7 + AOD 2 27 Jul 19:02:02 19:06:01 44° 73° (ENE) 19:10:02 437.475
ISS 27 Jul 19:03:45 19:05:55 17° 131° (SE) 19:08:07 437.550
SEEDS 27 Jul 19:08:54 19:12:37 33° 71° (ENE) 19:16:22 437.485
NUDT-PHONESAT 27 Jul 19:09:45 19:12:51 25° 264° (W) 19:15:57 437.300
CUBEBUG 2 27 Jul 19:11:37 19:15:46 32° 71° (ENE) 19:19:49 437.445
XW-2C 27 Jul 19:14:24 19:16:58 17° 266° (W) 19:19:32 145.795 - 145.815
